Taos, NM

1:08 AM MDT on July 25, 2017 (GMT -0600)
Taos Municipal

Weather History for KSKX - April, 2013

Change the Weather History Date:

Monday, April 1, 2013

  Actual Average Record
Temperature  
Mean Temperature 47 °F -  
Max Temperature 64 °F 54 °F 71 °F (2002)
Min Temperature 30 °F 24 °F 10 °F (2005)
Degree Days  
Heating Degree Days 18    
Moisture  
Dew Point 15 °F    
Average Humidity 28    
Maximum Humidity 48    
Minimum Humidity 12    
Precipitation  
Precipitation 0.00 in - - ()
Sea Level Pressure  
Sea Level Pressure 30.07 in    
Wind  
Wind Speed 6 mph (SW)    
Max Wind Speed 22 mph    
Max Gust Speed 26 mph    
Visibility 10 miles    
Events      
Averages and records for this station are not official NWS values.
T = Trace of Precipitation, MM = Missing Value Source: NWS Daily Summary

Daily Weather History Graph

Daily Weather History Graph

Search for Another Location

Airport or City:

Trip Planner

Search our weather history database for the weather conditions in past years. The results will help you decide how hot, cold, wet, or windy it might be!

Date:

Astronomy

Apr. 01, 2013 Rise Set
Actual Time 6:48 AM MDT 7:25 PM MDT
Civil Twilight 6:22 AM MDT 7:51 PM MDT
Nautical Twilight 5:51 AM MDT 8:21 PM MDT
Astronomical Twilight 5:20 AM MDT 8:53 PM MDT
Moon 12:28 AM MDT (4/1) 10:45 AM MDT (4/1)
Length of Visible Light 13h 28m
Length of Day
12h 36m
Waning Gibbous, 66% of the Moon is Illuminated
Apr 1
Waning Gibbous
Apr 2
Last Quarter
Apr 10
New
Apr 18
First Quarter
Apr 25
Full

Hourly Weather History & Observations

Time (MDT) Temp. Windchill Dew Point Humidity Pressure Visibility Wind Dir Wind Speed Gust Speed Precip Events Conditions
12:15 AM 44.6 °F - 15.8 °F 31% 30.12 in 10.0 mi Calm Calm - N/A   Scattered Clouds
12:35 AM 39.2 °F 37.0 °F 14.0 °F 36% 30.12 in 10.0 mi ENE 3.5 mph - N/A   Clear
1:15 AM 37.4 °F - 15.8 °F 41% 30.12 in 10.0 mi Calm Calm - N/A   Clear
1:35 AM 35.6 °F 30.7 °F 14.0 °F 41% 30.12 in 10.0 mi North 5.8 mph - N/A   Clear
1:55 AM 35.6 °F 30.7 °F 15.8 °F 44% 30.12 in 10.0 mi NNE 5.8 mph - N/A   Clear
2:15 AM 35.6 °F 32.8 °F 15.8 °F 44% 30.12 in 10.0 mi NE 3.5 mph - N/A   Scattered Clouds
2:35 AM 35.6 °F - 15.8 °F 44% 30.12 in 10.0 mi Calm Calm - N/A   Scattered Clouds
2:55 AM 35.6 °F - 14.0 °F 41% 30.12 in 10.0 mi Calm Calm - N/A   Mostly Cloudy
3:15 AM 35.6 °F 32.8 °F 14.0 °F 41% 30.11 in 10.0 mi North 3.5 mph - N/A   Mostly Cloudy
3:35 AM 35.6 °F 32.8 °F 15.8 °F 44% 30.11 in 10.0 mi NE 3.5 mph - N/A   Mostly Cloudy
3:55 AM 35.6 °F 32.8 °F 14.0 °F 41% 30.11 in 10.0 mi North 3.5 mph - N/A   Mostly Cloudy
4:15 AM 35.6 °F - 15.8 °F 44% 30.10 in 10.0 mi Calm Calm - N/A   Scattered Clouds
4:35 AM 32.0 °F 28.7 °F 14.0 °F 48% 30.11 in 10.0 mi North 3.5 mph - N/A   Scattered Clouds
4:55 AM 33.8 °F 27.7 °F 14.0 °F 44% 30.11 in 10.0 mi North 6.9 mph - N/A   Mostly Cloudy
5:15 AM 33.8 °F 28.6 °F 15.8 °F 48% 30.11 in 10.0 mi NNE 5.8 mph - N/A   Partly Cloudy
5:35 AM 35.6 °F 31.7 °F 15.8 °F 44% 30.11 in 10.0 mi NNE 4.6 mph - N/A   Scattered Clouds
6:15 AM 30.2 °F 25.4 °F 12.2 °F 47% 30.12 in 10.0 mi North 4.6 mph - N/A   Mostly Cloudy
6:35 AM 32.0 °F 25.6 °F 12.2 °F 44% 30.12 in 10.0 mi North 6.9 mph - N/A   Scattered Clouds
6:55 AM 32.0 °F 27.5 °F 12.2 °F 44% 30.13 in 10.0 mi North 4.6 mph - N/A   Clear
7:15 AM 33.8 °F 27.7 °F 14.0 °F 44% 30.13 in 10.0 mi NE 6.9 mph - N/A   Clear
7:35 AM 37.4 °F 31.4 °F 15.8 °F 41% 30.13 in 10.0 mi NE 8.1 mph - N/A   Clear
7:55 AM 41.0 °F - 17.6 °F 39% 30.14 in 10.0 mi Calm Calm - N/A   Clear
8:15 AM 44.6 °F 41.4 °F 21.2 °F 39% 30.14 in 10.0 mi ESE 5.8 mph - N/A   Clear
8:35 AM 46.4 °F 44.3 °F 23.0 °F 40% 30.14 in 10.0 mi SSE 4.6 mph - N/A   Clear
8:55 AM 50.0 °F - 23.0 °F 35% 30.14 in 10.0 mi Calm Calm - N/A   Partly Cloudy
9:15 AM 51.8 °F - 24.8 °F 35% 30.14 in 10.0 mi South 4.6 mph - N/A   Partly Cloudy
9:35 AM 53.6 °F - 24.8 °F 33% 30.14 in 10.0 mi South 3.5 mph - N/A   Clear
9:55 AM 53.6 °F - 24.8 °F 33% 30.13 in 10.0 mi SSW 9.2 mph - N/A   Scattered Clouds
10:15 AM 55.4 °F - 26.6 °F 33% 30.13 in 10.0 mi WSW 11.5 mph - N/A   Mostly Cloudy
10:35 AM 57.2 °F - 26.6 °F 31% 30.12 in 10.0 mi WSW 10.4 mph - N/A   Mostly Cloudy
11:15 AM 60.8 °F - 26.6 °F 27% 30.11 in 10.0 mi SSW 15.0 mph - N/A   Clear
11:35 AM 60.8 °F - 26.6 °F 27% 30.11 in 10.0 mi SW 11.5 mph 20.7 mph N/A   Clear
11:55 AM 62.6 °F - 24.8 °F 24% 30.10 in 10.0 mi WSW 15.0 mph 23.0 mph N/A   Clear
12:15 PM 62.6 °F - 24.8 °F 24% 30.10 in 10.0 mi WSW 15.0 mph 20.7 mph N/A   Clear
12:35 PM 62.6 °F - 24.8 °F 24% 30.09 in 10.0 mi SW 10.4 mph 19.6 mph N/A   Clear
12:55 PM 62.6 °F - 21.2 °F 20% 30.09 in 10.0 mi SW 13.8 mph 21.9 mph N/A   Clear
1:15 PM 62.6 °F - 21.2 °F 20% 30.08 in 10.0 mi SW 10.4 mph 20.7 mph N/A   Partly Cloudy
1:35 PM 62.6 °F - 19.4 °F 19% 30.07 in 10.0 mi WSW 11.5 mph 24.2 mph N/A   Clear
2:15 PM 64.4 °F - 19.4 °F 18% 30.05 in 10.0 mi WSW 12.7 mph 23.0 mph N/A   Clear
2:35 PM 64.4 °F - 19.4 °F 18% 30.04 in 10.0 mi SW 20.7 mph 26.5 mph N/A   Scattered Clouds
2:55 PM 62.6 °F - 17.6 °F 18% 30.03 in 10.0 mi WSW 6.9 mph - N/A   Scattered Clouds
3:15 PM 62.6 °F - 17.6 °F 18% 30.02 in 10.0 mi SW 10.4 mph 20.7 mph N/A   Partly Cloudy
3:35 PM 64.4 °F - 19.4 °F 18% 30.01 in 10.0 mi West 12.7 mph 20.7 mph N/A   Partly Cloudy
3:55 PM 64.4 °F - 15.8 °F 15% 30.00 in 10.0 mi West 12.7 mph 20.7 mph N/A   Partly Cloudy
4:15 PM 64.4 °F - 15.8 °F 15% 30.00 in 10.0 mi WSW 11.5 mph 20.7 mph N/A   Partly Cloudy
4:35 PM 64.4 °F - 14.0 °F 14% 29.99 in 10.0 mi SW 5.8 mph - N/A   Clear
4:55 PM 64.4 °F - 12.2 °F 13% 29.98 in 10.0 mi SW 13.8 mph - N/A   Clear
5:15 PM 64.4 °F - 10.4 °F 12% 29.98 in 10.0 mi WSW 19.6 mph 26.5 mph N/A   Clear
5:35 PM 64.4 °F - 10.4 °F 12% 29.98 in 10.0 mi West 15.0 mph 26.5 mph N/A   Clear
5:55 PM 64.4 °F - 10.4 °F 12% 29.97 in 10.0 mi WSW 21.9 mph 26.5 mph N/A   Clear
6:15 PM 60.8 °F - 8.6 °F 13% 29.97 in 10.0 mi West 18.4 mph - N/A   Clear
6:35 PM 60.8 °F - 8.6 °F 13% 29.98 in 10.0 mi West 13.8 mph - N/A   Clear
6:55 PM 59.0 °F - 10.4 °F 15% 29.98 in 10.0 mi West 9.2 mph - N/A   Clear
7:15 PM 57.2 °F - 8.6 °F 14% 29.98 in 10.0 mi WSW 8.1 mph - N/A   Clear
7:35 PM 55.4 °F - 8.6 °F 15% 29.98 in 10.0 mi SSW 4.6 mph - N/A   Clear
7:55 PM 53.6 °F - 8.6 °F 16% 29.98 in 10.0 mi SSW 6.9 mph - N/A   Clear
8:15 PM 51.8 °F - 8.6 °F 18% 29.99 in 10.0 mi SSW 5.8 mph - N/A   Clear
8:35 PM 50.0 °F - 6.8 °F 17% 29.99 in 10.0 mi SSE 5.8 mph - N/A   Clear
8:55 PM 51.8 °F - 8.6 °F 18% 30.00 in 10.0 mi South 4.6 mph - N/A   Clear
9:15 PM 48.2 °F - 6.8 °F 19% 30.00 in 10.0 mi East 3.5 mph - N/A   Clear
9:35 PM 46.4 °F 43.5 °F 6.8 °F 20% 30.01 in 10.0 mi East 5.8 mph - N/A   Clear
9:55 PM 48.2 °F - 8.6 °F 20% 30.01 in 10.0 mi ESE 3.5 mph - N/A   Clear
10:15 PM 48.2 °F - 8.6 °F 20% 30.01 in 10.0 mi SSE 4.6 mph - N/A   Clear
10:35 PM 48.2 °F - 8.6 °F 20% 30.02 in 10.0 mi ESE 4.6 mph - N/A   Clear
10:55 PM 44.6 °F 40.7 °F 8.6 °F 23% 30.02 in 10.0 mi SSE 6.9 mph - N/A   Clear
11:15 PM 46.4 °F 42.9 °F 8.6 °F 22% 30.01 in 10.0 mi South 6.9 mph - N/A   Clear
11:35 PM 46.4 °F 42.4 °F 8.6 °F 22% 30.01 in 10.0 mi SSE 8.1 mph - N/A   Clear
11:55 PM 46.4 °F 44.3 °F 10.4 °F 23% 30.01 in 10.0 mi SE 4.6 mph - N/A   Clear